Location: LDNL
(36.4545°S, 141.6685°E)
Time: 10:22:33
(UTC+11:00)

Courier 1B - Pass Details

Date: 14 February 2023
Orbit: 962 x 1209 km, 28.3° (Epoch: 21 March)

Event Time Altitude Azimuth Distance (km) Brightness Sun altitude
Rises 21:01:55 0° 310° (NW) 3,644 10.9 -6.7°
Reaches altitude 10° 21:04:52 10° 321° (NW) 2,715 10.1 -7.2°
Maximum altitude 21:10:22 29° 18° (NNE) 1,751 8.5 -8.2°
Enters shadow 21:15:52 11° 74° (ENE) 2,767 9.2 -9.2°
